Dewpoint
31 32 26 25 23 21 22 15 14 15 15 15 16 22 19 28 23 22 34 38 34 29 24 25 27 32 32 23 26 29 32 30 35 42 37 34 33 48 53 60 64 64 63 66 67 67 66 64 64 64 63 64 66 67 66 67 63 63 66 67 68 68 70 72 73 73 74 73 74 74 74 75 74 73 73 73 73 72 74 73 73 72 71 71 74 75 75
31 30 29 26 23 24 24 20 14 15 14 15 15 16 17 19 32 29 31 35 28 27 25 25 26 29 26 28 31 32 32 26 39 36 35 26 26 28 46 58 62 65 66 67 68 69 70 67 67 63 64 66 64 64 64 63 66 63 66 68 70 69 69 71 73 74 76 76 75 75 75 76 76 75 73 73 73 74 74 73 74 74 74 73 72 74 75
30 28 26 26 24 25 26 24 24 16 16 15 16 14 16 22 22 23 26 36 31 26 33 31 33 37 33 34 30 28 35 32 28 31 28 30 31 30 35 53 61 65 65 66 69 70 71 70 67 66 66 66 64 62 63 62 65 64 63 69 68 68 70 71 73 75 76 75 76 76 76 75 76 76 75 73 74 75 74 74 75 76 74 72 71 73 74
28 27 25 25 25 24 24 25 25 21 13 17 17 19 18 22 27 29 27 37 35 34 35 35 36 36 37 35 35 34 33 27 31 33 31 34 38 37 35 38 41 65 62 64 68 68 67 68 68 66 68 65 64 62 62 62 62 62 63 65 66 71 70 73 75 76 75 76 76 76 76 76 76 76 76 75 75 75 73 73 75 73 73 74 74 72 73
28 26 25 23 24 25 24 24 23 24 26 24 20 21 24 24 25 28 31 33 36 38 39 35 35 30 31 31 30 34 35 39 36 38 38 36 35 38 43 42 43 36 47 63 67 62 61 62 64 64 65 63 66 65 65 64 65 63 62 62 67 72 71 73 75 76 76 76 76 76 77 76 76 76 76 75 74 73 73 74 73 75 75 74 74 73 73
27 24 23 24 25 23 24 27 23 26 25 25 24 23 24 26 25 27 31 33 35 33 33 32 34 32 35 38 40 39 41 40 41 36 38 38 39 39 38 40 40 45 48 48 53 52 58 59 51 58 65 62 64 64 63 65 64 67 67 65 67 70 73 74 75 76 76 76 76 77 77 77 76 76 76 75 74 74 74 74 74 74 74 75 75 75 74
24 25 25 24 21 22 31 28 27 24 23 23 24 25 21 21 24 24 25 27 31 34 33 35 37 39 38 38 37 34 32 40 39 40 38 43 43 44 44 45 50 67 67 66 63 63 58 50 53 57 55 61 63 62 64 63 66 72 71 71 72 72 73 74 75 75 76 76 77 77 77 77 77 76 76 76 75 74 73 73 74 74 74 75 75 75 74
27 25 24 21 22 29 23 23 27 30 26 24 24 22 22 24 23 26 26 27 28 33 34 35 39 42 40 39 45 44 39 35 33 30 32 35 34 35 39 54 62 63 62 65 61 61 66 62 55 53 53 53 58 61 61 63 64 68 71 72 70 72 73 73 73 74 75 77 77 77 77 77 77 76 76 77 76 75 74 73 74 74 74 74 74 75 75
26 26 24 23 34 30 30 31 33 33 32 28 27 26 27 27 27 28 31 33 32 34 37 39 41 45 46 49 48 40 32 31 28 26 26 25 31 42 54 54 58 67 68 66 66 69 67 65 58 54 51 51 53 58 61 62 68 66 68 71 70 73 73 72 72 74 75 76 76 77 77 77 77 76 76 77 77 76 74 73 73 73 73 73 74 73 74
26 26 23 24 24 25 28 33 31 33 31 31 32 35 32 34 32 35 39 45 47 46 43 42 46 54 49 41 35 32 35 49 53 58 60 59 58 58 62 65 64 66 67 70 70 70 69 69 66 63 59 57 61 65 64 63 63 65 66 67 69 71 70 72 73 75 76 76 77 76 77 76 77 76 75 76 76 76 74 73 72 72 73 73 73 73 72
25 24 22 22 24 26 32 30 28 34 38 34 38 37 30 39 37 43 44 41 42 42 43 44 56 51 40 32 36 61 58 56 58 59 62 60 61 62 62 62 62 66 70 72 70 69 68 63 67 69 68 65 62 65 66 65 66 66 66 67 68 68 69 72 75 75 75 76 76 76 77 77 76 76 75 76 76 76 74 74 73 73 73 73 72 73 72
25 24 22 22 26 27 30 29 30 33 36 35 37 31 30 47 45 46 45 42 45 49 55 57 55 48 36 31 44 57 57 56 58 62 64 63 63 61 60 60 68 70 70 72 72 69 67 71 70 69 68 67 66 65 65 63 62 64 67 68 69 70 70 72 74 75 75 77 77 77 77 77 77 76 76 75 75 74 74 74 73 72 72 72 72 72 72
24 26 22 23 26 32 30 36 35 36 35 35 34 27 46 53 50 51 49 48 48 53 53 54 50 53 53 53 57 55 55 55 58 61 62 63 63 63 63 66 70 68 68 70 70 68 71 73 72 71 70 66 66 68 67 67 65 64 67 69 71 72 73 70 72 75 75 76 76 77 77 76 75 75 75 74 74 75 73 73 73 73 72 72 71 72 71
21 21 20 21 24 30 27 37 38 37 33 31 31 50 53 56 54 52 51 51 53 55 56 56 56 55 54 55 55 56 57 58 60 60 61 62 63 62 66 69 70 69 67 71 71 69 72 70 70 69 70 70 69 69 67 66 67 66 69 71 71 73 73 72 71 73 75 76 76 76 77 76 76 75 75 75 75 74 73 74 75 75 75 74 72 72 72
20 23 23 20 22 39 35 33 30 35 33 47 51 51 52 50 51 49 51 51 54 56 56 56 57 57 56 57 58 58 59 60 60 61 62 63 63 64 66 67 68 66 68 70 69 70 69 71 72 72 67 70 70 69 69 70 68 69 68 70 72 73 73 72 74 73 75 76 76 76 76 76 76 75 75 75 75 76 76 75 75 74 75 75 74 72 73
14 16 19 21 25 38 36 37 32 44 47 47 48 48 50 51 53 55 55 52 54 56 57 57 57 57 57 58 59 60 60 60 61 62 63 65 66 65 64 65 67 66 69 71 71 71 70 72 73 74 73 70 71 71 71 72 71 70 70 71 74 73 73 73 73 73 73 74 76 76 76 76 76 76 75 75 75 76 76 75 74 74 74 74 74 72 71
34 22 19 40 40 39 37 38 38 41 43 45 45 45 49 52 53 56 57 56 57 57 57 58 58 57 57 58 58 59 59 60 60 62 63 64 65 64 65 65 67 68 68 69 69 70 70 72 73 74 75 73 72 74 76 76 75 74 71 71 72 73 73 73 74 73 73 75 75 76 76 75 76 75 76 76 75 76 76 74 74 73 73 73 74 73 72
36 36 36 38 38 39 40 35 39 40 40 40 41 42 45 50 51 53 55 57 57 58 59 57 58 59 60 59 58 59 60 60 62 64 64 65 65 66 66 66 68 68 66 68 68 69 69 71 71 72 73 73 74 74 74 75 76 74 74 75 75 75 76 76 75 75 74 74 76 76 76 76 76 76 76 75 74 75 73 72 74 74 73 71 71 72 72
30 28 35 35 37 38 38 38 39 40 40 41 41 43 45 49 51 53 54 56 57 59 60 59 60 60 61 61 61 63 63 64 64 63 65 65 66 67 67 68 68 69 69 68 69 69 69 69 70 70 71 71 72 73 74 74 75 76 75 74 74 74 75 75 75 76 75 74 74 75 76 75 74 74 73 73 73 74 73 71 72 71 72 72 72 71 71
28 30 34 34 35 37 37 36 37 38 38 39 44 46 48 49 50 51 53 55 56 58 58 60 59 59 60 61 62 62 63 64 64 65 65 66 66 67 67 68 68 69 68 68 69 69 69 70 71 71 72 72 72 72 73 74 74 75 74 74 74 74 74 74 74 74 73 74 73 73 74 74 73 73 73 73 72 73 72 72 72 71 71 71 70 71 70
27 32 32 32 33 34 35 34 37 37 39 45 46 46 46 45 45 48 52 53 54 56 57 59 60 60 61 61 62 62 63 63 64 65 66 66 66 67 67 68 68 68 68 68 68 68 69 70 70 70 71 72 72 72 73 73 74 73 74 74 75 74 74 73 71 74 73 73 73 73 73 74 72 73 72 71 71 71 71 71 72 70 71 72 72 71 71
26 26 29 33 28 27 29 32 34 38 44 44 45 45 45 46 47 47 47 49 52 52 55 60 61 61 62 62 63 62 62 64 64 66 67 66 67 67 66 66 67 66 67 67 68 68 68 69 69 69 69 70 70 70 71 72 74 74 74 74 73 73 73 72 72 71 72 70 71 71 71 71 72 73 73 64 72 76 73 70 63 54 60 73 73 73 73
25 29 31 34 34 35 37 39 39 40 42 43 43 45 45 46 46 46 47 49 52 52 53 56 60 62 62 63 63 63 63 64 64 65 66 66 66 66 66 66 66 67 67 67 66 66 66 65 65 66 68 68 69 68 70 71 71 72 72 73 73 72 74 74 73 73 72 71 74 74 73 72 72 70 70 74 62 59 61 63 60 56 53 52 52 56 68
33 32 32 34 34 35 37 38 40 41 42 42 42 44 44 45 46 46 46 48 51 53 53 55 58 62 63 63 63 63 63 64 65 65 65 66 66 66 67 68 68 68 67 67 67 67 68 68 67 68 65 66 66 65 67 68 69 71 70 70 69 68 69 71 72 72 72 72 72 72 72 73 72 72 70 72 75 64 56 59 58 56 54 52 52 50 51
34 36 35 36 36 37 37 40 40 41 42 44 42 43 43 45 46 47 47 47 50 52 53 55 58 61 63 63 64 65 64 64 64 65 65 65 66 66 65 66 67 67 68 68 68 68 68 67 68 67 66 66 66 65 68 67 69 70 70 68 66 67 68 68 68 70 69 70 71 71 70 71 71 70 70 68 68 69 76 54 52 58 56 52 49 49 48
38 39 40 40 39 39 40 40 40 40 41 41 42 43 45 47 47 48 48 51 52 53 54 55 60 62 64 63 63 63 64 64 64 64 64 64 64 64 65 66 66 67 67 67 67 67 67 67 67 66 66 64 65 65 64 67 68 69 68 67 68 69 69 70 70 70 69 70 69 70 70 70 69 69 68 69 68 66 65 65 72 68 55 48 48 48 52
39 39 39 39 38 38 38 37 35 39 41 41 42 44 45 46 48 48 48 49 52 53 53 54 59 63 64 63 64 63 63 64 64 64 64 63 63 63 64 65 66 66 65 65 66 66 66 66 66 66 66 67 67 66 65 67 68 70 69 69 69 69 69 70 70 69 69 68 68 68 68 69 68 66 66 66 66 64 64 65 64 65 65 74 55 50 61
39 39 38 37 37 37 39 39 40 40 40 41 43 43 44 45 45 46 48 51 55 55 55 58 58 62 63 64 65 64 63 63 63 63 63 63 63 63 65 65 64 64 64 65 65 65 65 65 64 65 65 66 67 67 65 66 68 68 68 67 67 67 68 68 67 68 68 68 68 67 68 68 68 66 65 64 63 63 64 65 65 65 64 66 67 55 54
39 40 41 41 41 41 41 41 41 41 42 44 44 44 45 45 46 47 48 51 54 55 55 56 59 62 63 63 62 62 62 62 62 62 63 63 63 63 63 64 63 63 64 64 64 65 65 64 63 63 63 65 66 67 68 68 67 66 66 66 66 65 66 67 67 67 68 67 67 67 64 65 65 66 65 65 64 64 64 64 65 64 64 66 66 65 62
41 41 41 41 42 42 42 42 42 42 42 42 42 42 44 44 44 45 46 50 54 54 55 56 61 61 63 63 62 62 63 62 62 62 62 62 62 64 63 63 62 63 63 63 63 64 64 63 63 63 62 62 64 66 66 66 66 67 67 67 66 65 65 67 67 67 67 67 65 63 66 65 66 65 63 65 65 64 63 64 64 63 63 64 61 62 62
42 43 44 44 44 44 44 44 43 43 42 43 43 44 45 45 45 46 47 51 54 54 55 54 59 59 60 62 61 63 63 62 62 61 61 62 62 62 62 62 60 61 61 62 62 63 63 63 63 63 63 61 61 62 65 65 65 64 65 67 66 62 62 61 62 65 65 64 65 64 64 64 63 64 63 62 64 63 65 64 64 63 63 63 63 61 61
45 45 46 44 43 43 44 45 45 44 43 43 44 45 45 46 47 48 50 53 54 54 55 56 57 57 58 59 62 60 60 60 61 62 61 61 61 62 62 62 62 62 62 63 63 63 63 63 62 62 64 63 61 61 62 63 64 64 64 65 65 64 63 62 62 61 62 63 63 63 63 63 62 62 61 63 63 63 63 62 62 62 62 62 61 62 61
46 45 45 45 46 46 45 46 46 45 44 43 44 45 47 46 47 49 54 56 55 55 55 57 57 58 58 55 56 58 60 59 59 59 59 61 61 61 61 61 62 62 62 62 62 62 62 62 61 61 62 62 61 61 62 64 64 64 64 64 64 65 65 63 62 63 64 63 63 64 64 63 63 62 63 63 64 63 62 61 61 60 60 61 61 62 61
48 46 46 46 48 47 46 46 45 45 45 45 45 46 47 47 48 54 58 57 58 58 56 56 57 57 57 56 55 54 54 55 56 57 59 60 61 61 61 60 60 61 61 61 61 61 61 62 63 61 61 61 63 62 62 60 62 63 63 63 62 62 64 63 64 64 63 63 64 65 65 64 64 62 63 63 64 63 63 64 63 61 59 59 62 63 58
52 51 51 52 52 49 48 47 46 46 45 45 44 46 47 49 52 55 58 58 57 57 57 57 57 56 57 57 57 56 56 57 57 58 58 59 60 60 60 59 58 59 59 59 59 60 60 61 61 60 59 60 60 60 61 62 58 61 61 62 62 61 62 62 62 62 62 63 63 63 63 63 64 63 63 63 63 63 62 63 63 62 62 62 62 63 63
54 54 54 52 52 52 52 51 48 48 47 47 47 46 49 52 55 58 57 57 58 58 58 57 55 53 55 56 57 57 57 57 58 58 58 58 58 58 58 58 58 57 57 57 58 58 58 59 62 63 59 59 58 60 60 61 58 59 61 59 59 58 60 60 60 60 61 61 61 61 61 62 63 62 62 63 62 62 61 62 62 62 62 62 62 62 62
55 54 54 54 53 53 54 53 53 51 50 50 50 51 53 54 57 57 58 57 58 60 57 55 55 55 55 56 55 55 56 56 56 56 55 55 55 56 56 57 57 56 56 55 57 56 57 58 61 62 59 58 59 59 59 64 60 59 60 58 58 58 57 58 58 59 59 60 59 60 59 60 60 61 61 61 61 61 61 61 62 61 62 61 61 61 61
51 53 53 54 55 56 55 54 56 55 54 54 55 56 57 58 58 58 58 58 58 58 59 56 55 56 56 56 55 54 55 55 54 54 54 55 55 55 55 55 54 54 53 55 57 57 57 58 58 59 58 58 58 57 58 61 62 58 58 57 57 57 57 57 57 58 58 58 59 58 58 58 58 58 58 59 59 59 60 60 59 60 60 60 60 61 61
49 51 51 52 53 53 53 54 57 58 57 55 56 57 57 58 58 59 58 57 57 58 58 57 57 56 54 53 53 52 53 53 53 53 54 54 55 54 54 54 55 55 55 55 54 56 57 57 57 56 55 55 56 54 57 60 60 57 57 58 58 57 57 56 56 56 57 58 57 57 57 56 56 56 56 57 57 57 58 58 59 59 59 60 60 60 60
48 49 49 50 50 50 50 50 51 53 55 57 56 55 57 57 57 56 56 57 58 59 58 58 57 56 54 53 52 51 52 52 52 52 53 53 53 53 52 52 53 54 55 55 53 52 55 56 55 54 54 53 53 53 55 55 55 54 54 54 55 55 55 55 55 56 56 56 56 56 56 56 55 55 55 55 55 56 56 56 56 57 58 58 58 59 59
48 48 48 49 49 49 49 49 49 50 51 52 54 54 55 55 54 54 54 55 56 56 56 57 56 54 54 54 53 52 52 52 52 51 51 51 50 50 49 50 52 52 52 52 53 52 53 52 51 51 52 51 51 54 53 53 51 50 50 50 50 50 51 53 53 54 54 54 54 55 54 55 54 54 54 53 53 54 54 54 55 55 56 56 56 57 58
48 48 47 47 48 48 48 48 49 49 49 50 52 52 52 53 52 51 51 52 52 53 54 55 55 53 52 52 52 52 52 51 51 51 51 51 50 48 46 47 49 50 53 52 52 50 49 48 50 51 50 51 52 54 54 52 50 49 49 49 49 49 49 49 49 50 51 51 51 52 53 53 53 52 52 52 51 51 51 51 51 52 52 53 54 55 57
48 48 48 47 47 47 47 47 47 48 49 49 50 50 50 51 50 50 50 50 50 50 50 51 52 52 52 51 52 50 50 50 49 48 48 47 48 47 46 46 47 48 51 50 48 46 46 47 47 47 51 50 50 53 53 49 49 49 48 49 49 48 48 48 48 48 48 48 48 48 50 51 51 50 50 50 50 50 50 49 49 50 50 51 52 54 55
49 48 48 48 47 48 47 47 47 47 47 48 48 49 49 49 49 49 49 49 49 50 49 49 49 49 50 49 49 49 48 48 47 46 44 43 42 43 45 45 46 47 49 47 46 45 44 45 46 49 52 53 50 50 48 46 46 47 47 47 47 48 48 48 47 48 47 47 46 46 46 48 48 47 47 48 49 49 49 48 48 49 50 50 50 51 53
49 48 48 48 48 49 48 48 47 47 47 48 48 48 48 48 49 49 49 49 49 50 51 50 50 50 49 49 48 48 46 45 46 45 44 43 43 42 42 45 44 45 46 47 44 44 44 45 49 52 52 52 51 49 44 44 46 45 47 45 46 46 46 46 46 46 46 46 47 46 47 46 45 45 45 45 46 46 47 48 47 47 48 48 48 48 49
48 48 49 49 49 49 49 49 49 49 48 48 47 48 48 48 48 49 49 49 49 49 50 49 49 50 49 45 46 46 45 43 42 43 45 45 44 46 46 45 43 45 46 47 44 43 44 49 50 50 50 49 48 44 43 43 43 43 44 43 43 44 43 44 44 44 44 44 44 44 45 45 44 44 44 43 43 44 44 45 45 46 46 46 47 48 48
47 47 48 48 49 50 49 49 49 49 48 48 47 47 49 48 48 49 47 47 47 48 47 47 46 46 46 47 46 45 42 41 41 40 41 41 44 44 46 47 47 46 44 42 43 44 45 44 49 49 49 49 46 42 41 41 42 41 41 41 41 42 42 42 42 43 42 42 43 43 45 44 43 43 44 44 43 42 42 42 42 42 43 44 44 45 46
43 43 44 45 46 46 46 46 45 46 47 48 48 49 49 49 47 46 45 44 43 43 42 41 42 43 43 42 42 42 41 41 39 39 39 39 40 40 41 41 42 45 44 44 43 45 48 49 49 48 48 46 42 40 41 40 41 41 41 41 42 40 40 40 40 40 40 41 41 42 39 39 40 40 40 40 40 41 41 40 40 40 40 40 41 42 43
42 42 42 42 42 44 44 44 43 44 44 46 46 46 46 46 46 45 44 43 42 41 39 39 39 40 40 42 42 40 42 42 41 39 40 39 39 39 39 41 43 43 40 40 40 40 45 47 47 48 46 44 40 41 39 39 40 40 40 40 40 39 40 39 40 40 39 40 40 40 39 38 38 39 38 38 38 38 38 39 39 39 40 41 40 40 41
41 41 41 41 41 41 41 42 42 42 43 43 43 43 43 43 41 40 41 40 40 40 38 37 38 39 38 38 38 39 39 41 41 40 40 39 38 39 38 38 39 41 40 38 39 39 42 44 44 44 41 40 39 39 39 39 38 39 39 39 39 39 39 39 41 41 40 40 38 39 39 39 39 39 38 38 37 37 37 37 38 40 42 40 39 39 39
40 40 40 41 40 41 40 41 41 42 43 42 42 41 42 40 40 40 38 38 38 38 37 37 37 37 37 36 37 37 38 38 39 40 37 37 39 38 38 36 36 37 38 37 37 36 37 38 38 40 39 39 37 37 37 38 39 38 39 37 38 38 37 38 38 38 38 38 38 37 38 38 38 39 38 38 39 39 39 38 38 37 37 37 38 38 37
34 38 39 38 38 39 39 38 40 39 39 39 39 39 38 38 38 38 37 40 37 35 35 36 35 36 35 35 36 35 36 35 36 35 37 37 35 33 35 36 33 34 34 34 34 36 35 36 39 40 40 37 37 36 40 40 38 37 38 38 39 37 38 37 37 37 38 37 37 36 36 36 36 36 37 37 37 38 38 39 40 40 40 39 38 38 38